Content
SEND FEEDBACK

Daily
Averages
Monthly
Summary
United States of America

NAPOOPOO, HAWAII


Home > North America > United States > Hawaii
Elevation: 300 feet     Latitude: 19 28N     Longitude: 155 55W

WEATHER
 
SELECT A DAY
Number of Records: 172,970;   Date Range: 1/1/95 - 11/26/14
 
SHARE

PRINT THIS DATA

[ ← Previous Day ]
WEATHER ALMANAC - FEBRUARY 5, 2013
[ Next Day → ]
[ °C ]   °F
Weather ElementAverageHighLow
Temperature73.8 °F80.1 °F (11:53 am)66.9 °F (6:53 am)
Dewpoint59.6 °F63 °F (1:53 pm)55 °F (3:53 am)
Humidity61.2 %70 % (6:53 am)50 % (10:53 am)
Barometer30.01 in30.05 in (8:53 am)29.97 in (2:53 pm)
Wind Speed6.3 mph11.5 mph (12:53 pm)
Weather ElementAverage
Visibility10 mi
Wind DirectionSE (139.6 °)

Weather ElementTotal
Precipitation---
Cooling Degree Days8.5 (Base 65)
Growing Degree Days23.5 (Base 50)
Averaged from 23 records on February 5, 2013
WEATHER CONDITIONS BREAKOUT
WIND DIRECTION BREAKOUT
WEATHER BY HOUR - FEBRUARY 5, 2013
[ °C ]   °F
Local TimeTemperatureDewpointHumidityBarometerVisibilityWind DirectionWind SpeedGust SpeedPrecipitationEventsConditions
1:53 AM70.0 °F57.9 °F65 %30.00 in10.0 miCalmClear
2:53 AM68.0 °F57.0 °F68 %30.00 in10.0 miNNE (30°)9.2 mphScattered Clouds
3:53 AM70.0 °F55.0 °F59 %29.99 in10.0 miCalmClear
4:53 AM69.1 °F57.0 °F65 %29.99 in10.0 miEast (90°)3.5 mphMostly Cloudy
5:53 AM68.0 °F57.0 °F68 %29.99 in10.0 miEast (100°)3.5 mphClear
6:53 AM66.9 °F57.0 °F70 %30.02 in10.0 miNE (50°)6.9 mphMostly Cloudy
7:53 AM71.1 °F60.1 °F68 %30.03 in10.0 miSE (130°)4.6 mphOvercast
8:53 AM75.0 °F60.1 °F60 %30.05 in10.0 miEast (90°)5.8 mphOvercast
9:53 AM78.1 °F59.0 °F52 %30.04 in10.0 miWNW (290°)8.1 mphClear
10:53 AM79.0 °F59.0 °F50 %30.02 in10.0 miSW (220°)6.9 mphClear
11:53 AM80.1 °F60.1 °F50 %30.01 in10.0 miWSW (240°)10.4 mphClear
12:53 PM79.0 °F62.1 °F56 %29.99 in10.0 miSW (230°)11.5 mphClear
1:53 PM79.0 °F63.0 °F58 %29.98 in10.0 miSW (230°)10.4 mphOvercast
2:53 PM79.0 °F63.0 °F58 %29.97 in10.0 miSSW (210°)11.5 mphOvercast
3:53 PM77.0 °F63.0 °F62 %29.97 in10.0 miSSW (200°)9.2 mphOvercast
4:53 PM77.0 °F63.0 °F62 %29.99 in10.0 miSSW (200°)8.1 mphOvercast
5:53 PM75.9 °F63.0 °F64 %30.00 in10.0 miSW (220°)4.6 mph0.00 inOvercast
6:53 PM75.9 °F62.1 °F62 %30.01 in10.0 miNW (310°)6.9 mphOvercast
7:53 PM75.0 °F57.9 °F55 %30.03 in10.0 miEast (80°)5.8 mphOvercast
8:53 PM73.9 °F57.9 °F57 %30.04 in10.0 miNE (50°)8.1 mphOvercast
9:53 PM71.1 °F59.0 °F66 %30.04 in10.0 miENE (60°)3.5 mphClear
10:53 PM70.0 °F59.0 °F68 %30.04 in10.0 miENE (70°)3.5 mphClear
11:53 PM70.0 °F57.9 °F65 %30.02 in10.0 miESE (110°)3.5 mphClear
Hourly data recorded from PHKO, located miles away from Napoopoo, Hawaii







STORIES FROM OUR PARTNERS